Weather History for Wheeler AAF, HI

Change the Weather History Date:

Saturday, March 30, 2013

  Actual Average Record
Temperature  
Mean Temperature 68 °F -  
Max Temperature 75 °F 74 °F 79 °F (2011)
Min Temperature 61 °F 62 °F 60 °F (2007)
Cooling Degree Days 3    
Growing Degree Days 18 (Base 50)    
Moisture  
Dew Point 61 °F    
Average Humidity 77    
Maximum Humidity 91    
Minimum Humidity 57    
Precipitation  
Precipitation 0.00 in - - ()
Sea Level Pressure  
Sea Level Pressure 30.00 in    
Wind  
Wind Speed 7 mph (NNW)    
Max Wind Speed 16 mph    
Max Gust Speed 25 mph    
Visibility 10 miles    
Events      
Averages and records for this station are not official NWS values.
T = Trace of Precipitation, MM = Missing Value Source: NWS Daily Summary

Daily Weather History Graph

Daily Weather History Graph

Search for Another Location

Airport:

Trip Planner

Search our weather history database for the weather conditions in past years. The results will help you decide how hot, cold, wet, or windy it might be!

Date:

Astronomy

Mar. 30, 2013 Rise Set
Actual Time 6:26 AM HST 6:46 PM HST
Civil Twilight 6:04 AM HST 7:08 PM HST
Nautical Twilight 5:38 AM HST 7:34 PM HST
Astronomical Twilight 5:12 AM HST 8:01 PM HST
Moon 10:34 PM HST (3/30) 8:59 AM HST (3/30)
Length of Visible Light 13h 04m
Length of Day
12h 20m
Waning Gibbous, 84% of the Moon is Illuminated
Mar 30
Waning Gibbous
Apr 2
Last Quarter
Apr 9
New
Apr 18
First Quarter
Apr 25
Full

Hourly Weather History & Observations

Time (HST) Temp. Dew Point Humidity Pressure Visibility Wind Dir Wind Speed Gust Speed Precip Events Conditions
12:55 AM 61.3 °F 58.5 °F 90% 30.01 in 10.0 mi WNW 3.5 mph - N/A   Clear
1:55 AM 62.8 °F 59.9 °F 90% 30.00 in 10.0 mi Calm Calm - N/A   Mostly Cloudy
2:55 AM 61.5 °F 59.0 °F 91% 29.99 in 10.0 mi NNW 3.5 mph - N/A   Overcast
3:55 AM 64.6 °F 60.4 °F 86% 29.98 in 10.0 mi NNW 4.6 mph - N/A   Overcast
4:55 AM 65.1 °F 60.6 °F 85% 29.97 in 10.0 mi Calm Calm - N/A   Overcast
5:55 AM 64.9 °F 61.0 °F 87% 29.99 in 10.0 mi Calm Calm - N/A   Overcast
6:55 AM 64.4 °F 60.6 °F 88% 30.02 in 10.0 mi Calm Calm - N/A   Overcast
7:55 AM 66.6 °F 63.0 °F 88% 30.04 in 10.0 mi NNW 3.5 mph - N/A   Scattered Clouds
8:55 AM 70.7 °F 64.4 °F 80% 30.04 in 10.0 mi NNW 9.2 mph - N/A   Partly Cloudy
9:55 AM 73.2 °F 63.9 °F 72% 30.05 in 10.0 mi North 8.1 mph - N/A   Clear
10:55 AM 74.7 °F 63.5 °F 68% 30.03 in 10.0 mi NW 13.8 mph - N/A   Mostly Cloudy
11:55 AM 74.5 °F 62.6 °F 66% 30.03 in 10.0 mi NW 15.0 mph 23.0 mph N/A   Clear
12:55 PM 74.8 °F 61.5 °F 63% 30.01 in 10.0 mi NNW 13.8 mph 21.9 mph N/A   Partly Cloudy
1:55 PM 75.2 °F 59.0 °F 57% 29.99 in 10.0 mi NW 15.0 mph - N/A   Clear
2:55 PM 74.1 °F 59.2 °F 59% 29.97 in 10.0 mi NW 16.1 mph - N/A   Clear
3:55 PM 73.8 °F 59.2 °F 60% 29.96 in 10.0 mi NNW 15.0 mph 25.3 mph N/A   Clear
4:55 PM 72.5 °F 59.4 °F 63% 29.96 in 10.0 mi NNW 16.1 mph - N/A   Clear
5:40 PM 69.8 °F 60.8 °F 73% 29.96 in 10.0 mi NNW 12.7 mph - N/A   Mostly Cloudy
5:43 PM 69.8 °F 60.8 °F 73% 29.96 in 10.0 mi North 11.5 mph - N/A   Mostly Cloudy
5:45 PM 69.8 °F 60.8 °F 73% 29.96 in 10.0 mi North 10.4 mph - N/A   Mostly Cloudy
5:55 PM 69.6 °F 61.0 °F 74% 29.96 in 10.0 mi NNW 10.4 mph - N/A   Mostly Cloudy
6:00 PM 69.8 °F 60.8 °F 73% 29.97 in 10.0 mi North 11.5 mph - N/A   Mostly Cloudy
6:48 PM 68.0 °F 60.8 °F 78% 29.98 in 10.0 mi North 10.4 mph - N/A   Mostly Cloudy
6:50 PM 68.0 °F 60.8 °F 78% 29.98 in 10.0 mi North 9.2 mph - N/A   Mostly Cloudy
6:55 PM 68.0 °F 61.2 °F 79% 29.99 in 10.0 mi North 10.4 mph - N/A   Mostly Cloudy
7:55 PM 66.4 °F 61.0 °F 83% 30.00 in 10.0 mi North 9.2 mph - N/A   Mostly Cloudy
7:56 PM 66.2 °F 60.8 °F 83% 30.00 in 10.0 mi North 10.4 mph - N/A   Light Drizzle
8:04 PM 66.2 °F 60.8 °F 83% 30.01 in 10.0 mi North 9.2 mph - N/A   Mostly Cloudy
8:15 PM 66.2 °F 60.8 °F 83% 30.01 in 10.0 mi North 8.1 mph - N/A   Mostly Cloudy
8:55 PM 65.5 °F 59.9 °F 82% 30.02 in 10.0 mi North 8.1 mph - 0.00 in   Partly Cloudy
9:55 PM 64.9 °F 58.6 °F 80% 30.03 in 10.0 mi North 8.1 mph - N/A   Partly Cloudy
10:55 PM 64.0 °F 57.6 °F 79% 30.03 in 10.0 mi North 5.8 mph - N/A   Clear
11:55 PM 63.5 °F 57.0 °F 79% 30.02 in 10.0 mi NNW 8.1 mph - N/A   Clear